N189RS KSLC-KSLC

Flight info

Callsign N189RS
Flight time N/A
Altitude VFR
Route PATTERNPATTERN
Aircraft DA62/L-VGD/C

Departure

Time 2026-05-06 03:23
Airport Salt Lake City International Airport (KSLC)

Arrival

Time N/A
Airport Salt Lake City International Airport (KSLC)
Time Latitude Longitude Altitude Speed Heading
2026-05-06 03:17 40.78882 -111.95853 4223 ft 0 kts 115°
2026-05-06 03:19 40.78896 -111.95838 4223 ft 9 kts 337°
2026-05-06 03:19 40.78925 -111.95917 4224 ft 12 kts 318°
2026-05-06 03:19 40.78965 -111.95946 4224 ft 3 kts 28°
2026-05-06 03:19 40.79028 -111.95988 4224 ft 19 kts 314°
2026-05-06 03:20 40.79342 -111.96003 4225 ft 26 kts
2026-05-06 03:20 40.79529 -111.96006 4227 ft 27 kts
2026-05-06 03:20 40.79705 -111.96004 4226 ft 24 kts
2026-05-06 03:21 40.79869 -111.96004 4226 ft 23 kts 359°
2026-05-06 03:21 40.79941 -111.96053 4226 ft 12 kts 270°
2026-05-06 03:21 40.79883 -111.96143 4227 ft 13 kts 209°
2026-05-06 03:21 40.79773 -111.96209 4226 ft 22 kts 179°
2026-05-06 03:22 40.79501 -111.96210 4225 ft 64 kts 179°
2026-05-06 03:22 40.78947 -111.96203 4331 ft 89 kts 180°
2026-05-06 03:22 40.78299 -111.96188 4649 ft 94 kts 174°
2026-05-06 03:22 40.77546 -111.96134 4727 ft 122 kts 182°
2026-05-06 03:23 40.76668 -111.96192 4983 ft 129 kts 184°
2026-05-06 03:23 40.75885 -111.95786 5297 ft 132 kts 122°
2026-05-06 03:23 40.75742 -111.94584 5519 ft 141 kts 91°
2026-05-06 03:23 40.75779 -111.93238 5674 ft 151 kts 77°
2026-05-06 03:24 40.76533 -111.92188 5555 ft 173 kts 19°
2026-05-06 03:24 40.77752 -111.92089 5559 ft 179 kts 358°
2026-05-06 03:24 40.79010 -111.92140 5486 ft 179 kts 359°
2026-05-06 03:24 40.80196 -111.92153 5380 ft 155 kts 359°
2026-05-06 03:25 40.81134 -111.92151 5207 ft 119 kts
2026-05-06 03:25 40.81863 -111.92334 5024 ft 104 kts 323°
2026-05-06 03:25 40.82124 -111.93165 4785 ft 101 kts 273°
2026-05-06 03:25 40.82165 -111.94079 4664 ft 102 kts 266°
2026-05-06 03:26 40.82140 -111.95028 4762 ft 104 kts 262°
2026-05-06 03:26 40.81765 -111.95829 4694 ft 104 kts 210°
2026-05-06 03:26 40.81148 -111.96106 4574 ft 88 kts 185°
2026-05-06 03:26 40.80521 -111.96188 4411 ft 95 kts 180°
2026-05-06 03:27 40.79897 -111.96210 4254 ft 82 kts 179°
2026-05-06 03:27 40.79435 -111.96210 4225 ft 53 kts 180°
2026-05-06 03:27 40.79020 -111.96209 4224 ft 79 kts 178°
2026-05-06 03:27 40.78431 -111.96209 4440 ft 87 kts 177°
2026-05-06 03:28 40.77789 -111.96201 4741 ft 97 kts 178°
2026-05-06 03:28 40.77101 -111.96195 5096 ft 102 kts 182°
2026-05-06 03:28 40.76376 -111.96070 5350 ft 116 kts 150°
2026-05-06 03:28 40.76018 -111.95089 5484 ft 137 kts 92°
2026-05-06 03:29 40.76024 -111.93735 5493 ft 158 kts 89°
2026-05-06 03:29 40.76403 -111.92347 5505 ft 172 kts 46°
2026-05-06 03:29 40.77510 -111.91766 5499 ft 180 kts
2026-05-06 03:29 40.78770 -111.91764 5542 ft 182 kts 359°
2026-05-06 03:30 40.80025 -111.91815 5565 ft 185 kts 356°
2026-05-06 03:30 40.81246 -111.91972 5458 ft 158 kts 346°
2026-05-06 03:30 40.81905 -111.92656 5348 ft 102 kts 291°
2026-05-06 03:30 40.81948 -111.93548 5105 ft 98 kts 268°
2026-05-06 03:31 40.81914 -111.94426 4975 ft 94 kts 264°
2026-05-06 03:31 40.81862 -111.95296 4800 ft 94 kts 259°
2026-05-06 03:31 40.81592 -111.96020 4602 ft 88 kts 205°
2026-05-06 03:31 40.81017 -111.96166 4468 ft 87 kts 180°
2026-05-06 03:32 40.80400 -111.96197 4378 ft 87 kts 179°
2026-05-06 03:32 40.79818 -111.96210 4255 ft 82 kts 178°
2026-05-06 03:32 40.79339 -111.96203 4225 ft 59 kts 182°
2026-05-06 03:32 40.79012 -111.96213 4224 ft 68 kts 180°
2026-05-06 03:33 40.78442 -111.96214 4360 ft 87 kts 178°
2026-05-06 03:33 40.77806 -111.96213 4658 ft 95 kts 176°
2026-05-06 03:33 40.77086 -111.96151 4837 ft 110 kts 178°
2026-05-06 03:33 40.76288 -111.96059 5106 ft 120 kts 165°
2026-05-06 03:34 40.75599 -111.95375 5271 ft 138 kts 122°
2026-05-06 03:34 40.75463 -111.94093 5454 ft 149 kts 89°
2026-05-06 03:34 40.75542 -111.92723 5701 ft 152 kts 80°
2026-05-06 03:34 40.76169 -111.91614 5736 ft 168 kts 25°
2026-05-06 03:35 40.77345 -111.91181 5661 ft 181 kts
2026-05-06 03:35 40.78567 -111.91413 5878 ft 174 kts 339°
2026-05-06 03:35 40.79687 -111.91953 6155 ft 168 kts 341°
2026-05-06 03:35 40.80819 -111.92365 6319 ft 173 kts 349°
2026-05-06 03:36 40.82026 -111.92214 6433 ft 180 kts 20°
2026-05-06 03:36 40.83208 -111.91580 6504 ft 184 kts
2026-05-06 03:36 40.84490 -111.91308 6479 ft 193 kts 15°
2026-05-06 03:36 40.85717 -111.90533 6354 ft 202 kts 30°
2026-05-06 03:37 40.86963 -111.89720 6328 ft 203 kts 12°
2026-05-06 03:37 40.88381 -111.89599 6210 ft 207 kts 358°
2026-05-06 03:37 40.89824 -111.89447 6063 ft 212 kts
2026-05-06 03:37 40.91292 -111.89182 5886 ft 212 kts
2026-05-06 03:38 40.92734 -111.89098 5937 ft 204 kts 360°
2026-05-06 03:38 40.94122 -111.89088 6028 ft 198 kts
2026-05-06 03:38 40.95505 -111.89070 6017 ft 201 kts 356°
2026-05-06 03:38 40.96825 -111.89438 6292 ft 187 kts 345°
2026-05-06 03:39 40.98111 -111.89841 6252 ft 193 kts 341°
2026-05-06 03:39 40.99360 -111.90313 6473 ft 183 kts 344°
2026-05-06 03:39 41.00529 -111.90800 6727 ft 174 kts 345°
2026-05-06 03:39 41.01704 -111.91318 6729 ft 181 kts 339°
2026-05-06 03:40 41.02866 -111.92016 6737 ft 185 kts 335°
2026-05-06 03:40 41.04084 -111.92684 6596 ft 195 kts 339°
2026-05-06 03:40 41.05373 -111.93342 6469 ft 201 kts 335°
2026-05-06 03:40 41.06648 -111.94171 6336 ft 205 kts 330°
2026-05-06 03:41 41.07922 -111.95011 6266 ft 205 kts 331°
2026-05-06 03:41 41.09178 -111.95895 6237 ft 203 kts 330°
2026-05-06 03:41 41.10382 -111.96777 6165 ft 193 kts 328°
2026-05-06 03:41 41.11432 -111.97708 6065 ft 170 kts 321°
2026-05-06 03:42 41.12294 -111.98534 5821 ft 140 kts 322°
2026-05-06 03:42 41.13079 -111.99262 5597 ft 138 kts 321°
2026-05-06 03:42 41.13880 -111.99828 5524 ft 117 kts 351°
2026-05-06 03:42 41.14622 -111.99485 5271 ft 113 kts 46°
2026-05-06 03:43 41.14534 -111.98649 5017 ft 102 kts 153°
2026-05-06 03:43 41.13901 -111.98339 4911 ft 93 kts 154°
2026-05-06 03:43 41.13387 -111.97979 4875 ft 67 kts 147°
2026-05-06 03:43 41.13148 -111.97809 4878 ft 24 kts 158°
2026-05-06 03:44 41.13013 -111.97728 4878 ft 19 kts 153°
2026-05-06 03:44 41.12895 -111.97646 4877 ft 21 kts 153°
2026-05-06 03:44 41.12741 -111.97542 4876 ft 29 kts 152°
2026-05-06 03:44 41.12599 -111.97416 4875 ft 18 kts 112°
2026-05-06 03:45 41.12631 -111.97315 4879 ft 0 kts 51°
2026-05-06 03:46 41.12675 -111.97247 4877 ft 22 kts 50°
2026-05-06 03:46 41.12703 -111.97086 4877 ft 17 kts 155°
2026-05-06 03:46 41.12580 -111.97002 4877 ft 19 kts 130°
2026-05-06 03:46 41.12611 -111.96846 4877 ft 20 kts 63°
2026-05-06 03:47 41.12665 -111.96697 4877 ft 17 kts 70°
2026-05-06 03:47 41.12656 -111.96645 4877 ft 6 kts 153°
2026-05-06 03:47 41.12646 -111.96639 4877 ft 0 kts 154°